Location: Chiatra
(42.2903°N, 9.4733°E)
Time: 01:07:28
(UTC+00:00)

Daily predictions for brighter satellites

Satellite Brightness Start Highest point End
(mag) Time Altitude Azimuth Time Altitude Azimuth Time Altitude Azimuth
CENTAUR R/B 4.3 02:14:21 37° ENE 02:14:21 37° ENE 02:20:43 10° ESE
Lacrosse 5 4.4 02:52:48 17° ENE 02:52:48 17° ENE 02:54:17 10° ENE
Cosmos 2263 Rocket 4.2 03:01:26 23° NE 03:01:26 23° NE 03:03:33 10° NE
SJ 16-02 4.2 03:08:47 13° NE 03:08:47 13° NE 03:09:24 10° NE
CZ-4C R/B 3.7 03:25:49 25° SE 03:27:02 28° ESE 03:31:40 10° NE
Cosmos 1603 4.5 03:30:28 46° SE 03:30:28 46° SE 03:34:25 10° SSE
ATLAS 3B R/B 4.0 03:30:35 26° N 03:33:18 34° NE 03:39:43 10° ESE
Cosmos 1943 3.6 03:36:00 61° ESE 03:36:00 61° ESE 03:40:50 10° SSE
Lacrosse 4 Rocket 3.2 03:38:11 32° E 03:38:11 32° E 03:41:00 10° SE
ALOS 3.6 03:50:47 10° NNE 04:02:13 - S 03:53:16 31° NNE
METEOR-M 4.4 03:54:54 10° NNE 04:00:13 66° E 04:05:32 10° S
NOSS 3-4 (A) 3.2 04:00:50 69° NW 04:00:50 69° NW 04:06:59 10° NNE
NOSS 3-4 (C) 3.2 04:00:54 70° NW 04:00:54 70° NW 04:07:07 10° NNE
NOSS 3-2 (C) 4.1 04:00:07 54° WNW 04:01:46 64° WSW 04:10:15 10° SSE
Milstar 3 Cent rocket 4.2 04:00:16 24° SSW 04:03:34 33° S 04:14:13 10° ESE
CENTAUR R/B 3.2 04:01:35 49° WNW 04:03:47 63° WSW 04:12:31 10° SSE
Cosmos 158 Rocket 4.0 04:10:39 44° N 04:12:10 71° ENE 04:17:08 10° SSE
SL-4 R/B 3.9 04:15:03 19° NNE 04:15:03 19° NNE 04:16:45 10° NE
GPS 2-04 Rocket1 4.0 04:16:28 30° S 04:16:28 30° S 04:19:40 10° ESE
SKYMED 2 4.3 04:12:04 10° SSE 04:16:16 50° ENE 04:19:24 17° N
Cosmos 1844 Rocket 3.7 04:11:08 10° S 04:16:29 46° ESE 04:21:53 10° NE
Cosmos 1151 Rocket 2.9 04:17:01 83° S 04:17:01 83° S 04:21:09 10° S
Cosmos 1782 3.4 04:16:34 30° NNE 04:18:17 55° E 04:22:15 10° SSE
ATLAS 2AS CENTAUR R/B 2.9 04:15:30 27° SW 04:20:16 72° NW 04:28:09 10° NNE
ERS-2 3.2 04:17:00 10° SSE 04:19:17 37° S 04:19:17 37° S
Cosmos 1680 Rocket 3.7 04:20:02 23° N 04:23:26 70° ENE 04:28:43 10° SSE
SJ-12 4.2 04:20:25 10° NNE 04:24:28 67° ESE 04:28:29 10° S
ATLAS 5 CENTAUR R/B 4.3 04:31:19 10° N 04:31:19 10° N 04:31:23 10° N
Atlas Centaur 2 3.8 04:26:40 17° SW 04:29:58 26° S 04:34:29 10° SE
RESURS DK-1 2.5 04:26:56 12° SSW 04:30:44 73° ESE 04:34:53 10° NNE
CRYOSAT 2 4.3 04:26:25 10° S 04:31:16 90° W 04:36:10 10° N
Lacrosse 5 2.0 04:32:03 49° WNW 04:32:42 53° NW 04:37:40 10° NE
ATLAS CENTAUR R/B 2.5 04:32:06 24° N 04:33:42 35° NE 04:37:20 10° ESE
Cosmos 1500 Rocket 4.5 04:31:04 10° SSE 04:35:12 48° E 04:39:22 10° NNE
ADEOS 3.6 04:30:07 10° N 04:35:14 56° WNW 04:40:19 10° SSW
Cosmos 1328 Rocket 3.5 04:35:40 44° NW 04:36:52 62° W 04:41:14 10° S
Meteor PRIRODA 4.1 04:33:40 10° NNE 04:37:24 63° ESE 04:41:05 10° S
OAO 2 Rocket 4.3 04:37:06 26° SW 04:39:05 36° S 04:43:45 10° ESE
H-2A R/B 4.1 04:37:34 10° NNE 04:41:17 41° E 04:44:57 10° S
Cosmos 2263 Rocket 3.3 04:43:11 25° NW 04:43:11 25° NW 04:47:00 10° N
Cosmos 2112 Rocket 4.0 04:38:54 16° NNW 04:43:13 88° ENE 04:48:33 10° SSE
SJ 16-02 2.5 04:45:52 26° NNW 04:45:52 26° NNW 04:48:24 10° N
Gbstr 26 Del rocket 2.8 04:43:34 44° NNW 04:44:32 64° NNE 04:48:26 10° ESE
Meteor 1-4 Rocket 3.7 04:46:47 27° SW 04:46:47 27° SW 04:48:43 10° SSW
Cosmos 1898 Rocket 3.4 04:46:27 10° SSW 04:51:45 73° WNW 04:57:06 10° NNE
Meteor 1-26 Rocket 4.4 04:49:00 10° NNW 04:54:31 47° W 04:59:49 10° SSW
FALCON 9 DEB 3.7 04:56:35 34° NNW 04:56:35 34° NNW 04:59:25 10° NE
FALCON 9 DEB 3.8 04:56:45 32° NNW 04:56:45 32° NNW 04:59:32 10° NE
Cosmos 1743 Rocket 3.5 04:54:39 10° S 04:59:05 88° W 05:03:35 10° N
FENGYUN 3A 4.3 04:55:16 10° N 04:59:58 31° WNW 05:04:37 10° SW
Envisat 4.0 04:55:37 10° NNE 05:00:34 50° E 05:05:29 10° S
Cosmos 1408 Rocket 3.9 04:56:54 10° SSW 05:01:09 43° WNW 05:05:24 10° N
H-2A R/B 3.8 05:00:18 10° NNE 05:03:55 38° E 05:07:30 10° S
NOSS 7 (H) 4.2 05:01:45 19° SW 05:04:01 59° NW 05:06:58 10° NNE
COSMO-SKYMED 1 2.8 05:00:07 10° S 05:04:18 47° W 05:07:59 13° NNW
NOSS 7 (E) 4.5 05:00:45 10° SSW 05:04:46 86° SE 05:08:00 10° NE
Cosmos 2181 Rocket 4.3 04:59:53 10° NNW 05:05:35 40° W 05:11:13 10° SSW
Cosmos 1937 Rocket 3.4 05:03:43 10° SSW 05:08:50 70° WNW 05:14:02 10° NNE
Meteor 2-3 Rocket 4.5 05:08:24 10° SW 05:13:21 30° WNW 05:18:22 10° N
MOS 1 Rocket 3.4 05:09:52 10° SSE 05:14:37 86° E 05:19:45 10° N
Cosmos 2154 Rocket 4.0 05:08:36 10° S 05:14:50 89° W 05:21:08 10° N
CZ-4C R/B 2.5 05:11:05 14° WSW 05:15:11 42° NW 05:20:49 10° NNE
Lacrosse 4 Rocket 2.9 05:14:33 19° W 05:15:14 20° WSW 05:18:28 10° SSW
Cosmos 1689 Rocket 2.8 05:14:49 10° SSW 05:17:24 30° W 05:18:12 26° WNW
Cosmos 1805 Rocket 3.8 05:13:52 10° S 05:18:17 73° E 05:22:44 10° NNE
CZ-4B R/B 3.5 05:14:31 10° N 05:18:43 39° WNW 05:22:48 10° SW
FALCON 9 DEB 4.2 05:18:33 22° NW 05:19:24 25° NNW 05:22:09 10° NE
Meteor 1-27 Rocket 4.4 05:14:24 10° N 05:20:08 61° ENE 05:25:57 10° SSE
Meteor 1-10 Rocket 4.1 05:16:34 10° NNW 05:22:09 80° W 05:27:46 10° S
Aureole 2 Rocket 1.5 05:20:22 10° SSW 05:22:52 60° WNW 05:25:23 10° NNE
ATLAS 3B R/B 2.9 05:17:51 11° NW 05:24:24 62° WSW 05:31:31 10° SSE
Cosmos 1862 3.5 05:21:58 10° SSW 05:25:54 49° W 05:29:52 10° N
Genesis I 4.0 05:24:54 13° WSW 05:27:50 30° NW 05:31:16 10° NNE
YAOGAN 6 2.4 05:26:01 10° N 05:29:31 82° W 05:32:59 10° SSW
Cosmos 2341 Rocket 4.5 05:24:44 10° S 05:30:51 66° E 05:37:00 10° NNE
Cosmos 2278 Rocket 4.0 05:26:53 10° S 05:31:58 36° ESE 05:37:05 10° NE
ALOS 4.0 05:30:06 10° NNW 05:31:45 13° NW 05:31:45 13° NW
Cosmos 2327 Rocket 4.5 05:28:17 10° SSW 05:34:17 61° W 05:40:20 10° N
Cosmos 2074 Rocket 4.4 05:30:04 10° SW 05:35:48 39° WNW 05:41:36 10° N
PSLV R/B 3.9 05:34:34 10° N 05:38:19 49° WNW 05:41:57 10° SSW
SL-24 DEB 4.3 05:37:04 10° S 05:41:48 71° W 05:46:36 10° N
Cosmos 405 Rocket 3.3 05:38:28 10° SW 05:41:49 33° WNW 05:45:14 10° N
BREEZE M DEB (TANK) 2.6 05:34:09 10° WSW 05:42:07 78° NNW 05:44:53 10° ENE
EO 1 Delta rocket 4.5 05:40:52 10° SSW 05:45:39 38° W 05:49:59 10° NNW
Cosmos 1295 Rocket 4.5 05:41:14 10° SSW 05:47:15 61° W 05:53:17 10° N
NOAA 12 4.4 05:42:11 10° NNE 05:47:29 76° ESE 05:52:42 10° S
Cosmos 1812 3.5 05:44:57 10° NNW 05:48:24 31° W 05:51:48 10° SSW
Cosmos 2228 Rocket 3.7 05:46:55 10° NNW 05:50:57 35° W 05:54:56 10° SSW
Cosmos 1633 Rocket 3.6 05:47:28 10° S 05:51:51 65° E 05:56:14 10° NNE
SL-4 R/B 3.4 05:51:08 10° NW 05:54:13 22° N 05:57:07 10° ENE
GPS 2-04 Rocket1 4.4 05:52:05 10° WSW 05:55:11 23° SSW 05:58:11 10° SE
Cosmos 1356 3.3 05:54:03 10° SSW 05:57:26 70° W 06:00:51 10° N
USA 234 3.3 05:52:00 10° NE 05:58:34 80° NW 06:05:05 10° SW
Cosmos 1844 Rocket 3.5 05:55:46 10° WSW 06:00:34 28° NW 06:05:26 10° N
